Location: Unspecified
(35.7250°N, 0.0000°E)
Time: 16:05:10
(UTC+00:00)

Vanguard 1 Rocket - Pass Details

Date: 25 June 2019
Orbit: 652 x 4224 km, 34.3° (Epoch: 21 August)

Event Time Altitude Azimuth Distance (km) Brightness Sun altitude
Rises 18:45:07 0° 267° (W) 7,363 13.3 5.4°
Reaches altitude 10° 18:50:50 10° 268° (W) 5,813 12.8 4.4°
Maximum altitude 19:06:22 84° 183° (S) 1,726 8.9 1.6°
Drops below altitude 10° 19:13:56 10° 96° (E) 3,032 9.5 0.2°
Sets 19:16:01 0° 95° (E) 3,742 10.0 -0.2°
